RH
75 71 81 95 95 96 95 92 93 92 91 89 87 85 82 76 76 77 77 75 76 77 77 80 80 83 86 89 92 80 41 38
72 74 72 77 80 97 97 95 94 93 91 90 88 86 82 81 82 78 79 83 82 81 82 83 84 88 90 90 91 75 44 39
80 79 83 87 83 85 91 93 93 93 85 88 84 63 66 66 80 86 85 86 86 87 87 88 89 86 88 90 86 45 48 40
83 85 85 88 81 84 80 72 66 67 64 71 65 74 71 73 80 90 89 89 89 90 90 90 81 57 54 65 46 53 48 48
81 83 85 85 80 79 72 69 70 69 74 72 73 73 74 69 67 64 68 76 55 55 55 54 65 60 53 53 48 45 42 40
82 80 81 84 72 72 70 66 69 68 68 74 76 70 70 65 54 56 60 55 56 54 51 61 58 53 51 51 45 35 28 29
76 76 77 74 74 70 70 78 84 84 82 78 77 67 64 57 58 50 50 47 48 49 49 46 45 42 42 40 36 37 36 29
76 69 66 64 69 75 82 82 78 84 91 92 89 88 68 50 47 46 45 46 46 45 44 39 37 35 36 40 37 36 36 45
72 74 71 75 74 75 78 83 83 88 89 86 84 72 57 52 45 47 48 45 45 42 39 40 35 31 33 32 32 37 36 52
67 70 73 81 84 90 82 82 87 82 85 78 56 45 49 53 48 50 42 40 38 39 37 34 36 36 34 32 33 34 53 54
72 74 75 84 93 80 66 69 59 66 69 58 56 54 53 53 48 47 46 42 45 39 40 40 38 36 28 30 30 32 49 43
74 74 86 87 69 59 60 57 56 53 43 41 44 42 50 49 48 53 45 43 44 41 44 41 46 49 30 32 34 38 50 47
73 68 64 60 54 58 58 59 54 42 38 45 46 45 45 50 44 45 46 44 50 48 40 42 38 51 40 32 30 47 52 45
66 58 49 44 49 53 58 58 48 40 41 46 45 48 43 42 48 45 49 45 55 54 48 40 45 58 45 38 33 29 35 45
58 50 47 47 53 48 46 47 48 41 40 38 41 43 38 41 49 49 53 52 52 57 54 51 46 52 61 44 42 41 50 36
43 44 42 44 48 46 52 43 42 50 43 41 40 48 47 42 47 54 57 56 60 58 51 53 51 47 42 44 50 52 44 43
49 48 46 47 49 49 44 48 48 45 45 52 53 52 52 50 52 58 61 57 61 59 56 49 41 39 39 40 44 39 41 43
53 46 45 46 46 49 52 50 47 46 50 51 50 50 48 53 53 60 62 61 58 54 54 49 42 40 36 37 35 37 36 46
47 42 45 46 48 47 49 49 51 49 48 47 51 46 44 51 61 64 60 58 58 53 51 50 43 36 38 34 39 40 43 43
46 43 41 41 42 39 36 33 29 28 36 38 40 44 48 60 63 62 58 56 55 59 50 46 50 47 50 56 48 48 58 59
Wind_Speed
10 11 10 8 7 8 7 7 7 6 6 6 7 5 5 4 5 4 5 5 6 5 5 6 7 9 9 9 9 7 7 6
9 8 8 7 6 5 5 5 6 6 5 5 6 4 3 4 2 3 5 6 7 8 8 9 9 10 11 10 10 6 9 7
6 6 6 5 5 4 4 4 4 4 4 4 3 2 2 2 3 4 5 6 6 7 9 10 10 8 9 11 11 5 8 6
4 5 5 4 2 2 1 1 0 1 2 2 0 1 2 3 4 6 6 6 6 8 9 10 7 5 5 6 5 7 6 7
5 5 4 4 3 2 2 2 1 1 2 2 2 2 3 2 1 1 3 5 4 5 6 4 6 5 5 5 6 6 5 5
6 5 5 4 3 3 3 4 5 4 4 5 3 2 1 1 1 3 3 3 4 5 4 5 5 5 6 6 7 7 6 5
7 8 5 5 5 4 5 6 5 7 7 7 4 3 1 2 3 3 3 3 5 5 5 5 6 6 6 6 7 8 9 6
11 10 8 9 8 7 5 4 3 2 1 3 6 5 1 4 3 3 4 4 4 4 5 4 5 5 6 6 7 7 8 8
13 12 9 9 8 6 5 5 6 5 4 4 5 0 1 4 3 4 4 4 5 4 4 3 3 4 6 6 6 6 6 5
14 10 10 10 7 6 5 3 5 4 3 2 4 3 2 4 5 5 4 3 3 4 3 3 3 5 6 5 6 5 3 4
13 8 10 9 8 5 2 7 5 2 3 2 5 6 5 5 4 4 3 4 4 4 4 4 4 6 7 5 7 5 2 2
12 6 6 7 6 5 3 4 3 3 4 5 7 6 6 5 5 4 3 3 3 3 4 4 4 5 7 6 7 3 2 2
11 10 10 9 7 4 1 2 3 4 5 7 7 7 8 6 4 4 3 3 2 2 2 5 4 6 6 7 7 3 2 1
11 11 12 9 4 1 2 2 3 4 5 6 7 6 6 5 3 2 1 1 0 2 4 3 3 4 5 7 7 5 4 5
10 10 9 3 3 3 4 4 3 2 3 3 3 3 2 2 3 4 4 3 1 2 3 5 5 3 6 4 5 5 8 5
8 8 6 6 5 5 6 4 3 3 2 1 4 6 8 6 5 4 3 2 4 3 3 4 4 5 4 3 5 7 6 9
8 10 9 8 9 9 7 8 4 2 2 5 6 6 7 7 5 4 1 3 4 4 3 3 3 4 3 4 5 5 6 7
10 13 12 12 12 12 12 10 8 7 7 7 6 8 8 7 5 4 5 5 3 3 4 4 3 2 2 3 4 6 6 6
12 15 14 11 11 10 8 7 7 7 7 7 10 9 9 9 6 6 4 4 3 2 3 3 3 2 3 4 4 5 5 5
14 14 13 10 10 9 8 8 4 4 5 7 7 8 9 10 5 5 5 2 2 2 4 4 3 3 5 4 5 5 5 5
Wind_Direction
147 151 144 119 127 136 151 148 134 129 122 112 98 90 73 62 46 39 24 20 13 22 16 8 5 359 4 360 353 4 7 6
151 147 147 142 143 116 142 146 135 137 132 120 109 102 85 71 23 4 6 7 352 349 347 346 349 352 349 349 352 327 357 350
132 151 160 139 144 138 146 142 144 173 159 140 126 96 69 27 342 324 333 331 329 333 329 322 330 322 340 340 330 344 340 339
137 155 145 101 99 117 159 132 204 230 189 161 177 345 4 331 314 320 303 311 312 331 331 319 312 331 337 333 346 343 336 333
176 160 113 76 34 19 17 9 319 300 294 297 328 335 328 320 285 292 345 4 359 357 1 360 356 349 352 360 1 7 5 352
147 101 95 92 55 46 30 10 358 335 339 338 327 326 327 347 54 58 56 21 5 18 15 13 26 30 26 38 39 27 11 356
106 82 85 90 71 62 46 38 9 341 332 330 319 295 320 54 58 66 51 36 28 30 35 35 37 38 36 32 29 16 4 357
102 95 94 91 83 81 88 66 15 290 304 12 353 317 328 91 77 57 48 41 51 57 54 46 37 17 16 6 10 9 1 359
111 108 103 76 62 67 43 32 56 44 49 48 112 223 144 94 88 68 58 67 92 90 76 59 36 15 6 351 349 1 357 33
128 121 92 75 63 30 66 75 70 95 122 181 151 153 70 81 78 85 102 94 85 74 39 28 19 359 343 336 337 343 16 88
117 98 79 72 52 104 100 85 88 83 58 66 54 63 73 90 92 98 88 70 60 43 41 5 9 351 331 325 336 341 354 70
122 127 110 98 132 138 138 106 93 70 81 72 68 66 64 73 71 61 51 66 62 53 28 29 17 344 319 308 312 287 203 5
130 138 136 142 147 179 176 148 112 90 70 56 52 47 50 56 61 49 44 52 75 65 15 357 359 354 313 322 303 242 222 352
151 155 156 153 171 133 62 122 87 79 61 53 46 49 51 60 50 28 316 288 263 59 16 351 3 23 337 301 311 292 289 307
153 154 162 144 102 109 93 96 107 90 52 51 54 110 159 227 271 288 272 262 173 99 46 5 352 31 28 338 313 305 321 275
127 116 99 63 33 60 61 49 49 37 30 317 339 342 333 315 298 291 266 166 119 104 65 35 6 350 331 345 312 315 308 302
88 82 77 75 76 72 68 62 53 18 308 326 328 325 310 291 278 297 174 142 135 112 94 45 40 9 345 320 311 307 293 300
105 97 83 75 71 63 59 47 25 5 349 331 321 316 316 317 276 219 177 158 149 130 132 134 121 102 292 295 309 312 310 299
105 100 93 85 78 68 62 54 36 10 347 327 317 312 309 309 259 190 157 124 150 169 181 175 213 264 274 307 293 289 285 294
113 104 99 94 93 82 67 52 37 7 342 324 311 308 303 303 228 151 131 132 102 160 257 272 244 256 279 277 287 286 287 293